[[{"header":{"parameterUnit":"m.s-1","parameterCategory":1,"la1":30.2991,"la2":30.254,"lo1":-89.0895,"lo2":-89.0444,"dy":0.0017,"dx":0.0017,"nx":28,"ny":28,"refTime":"2024-06-29T21:00:00:Z","depth":0,"parameterNumber":2,"parameterNumberName":"U-component_of_WINDS"},"data":[0,0,0,0,0,0,0,0,0,0,0,0,0,0,0,0,0,0,0,0,0,0,0,0,0,0,0,0,0,0,0,0,0,0,0,0,0,0,0,0,0,0,0,0,0,0,0,0,0,0,0,0,0,0,0,0,0,0,1.895,1.8949,0,1.8918,1.8917,1.8917,1.8803,1.8801,1.8798,1.8795,1.8767,1.8769,1.877,0,0,0,0,0,0,0,0,0,0,0,0,0,1.892,1.8921,1.895,1.8949,1.8949,1.8918,1.8917,1.8917,1.8804,1.88,1.8797,1.8794,1.8766,1.8768,1.877,0,0,0,0,0,0,0,0,0,0,0,0,0,1.8915,1.8921,1.895,1.8889,1.8883,1.8918,1.8917,1.8917,1.8804,1.88,1.8796,1.8793,1.8766,1.8768,1.8771,1.8864,0,0,1.8778,1.8779,0,0,0,0,0,0,0,0,1.8915,1.8916,1.8898,1.8893,1.8886,1.886,1.8896,1.8899,1.8805,1.8834,1.8795,1.8791,1.8802,1.8801,1.8803,1.8862,1.8861,1.8778,1.878,1.8781,1.8782,0,0,0,0,0,0,0,1.8916,1.8917,1.8937,1.8898,1.8891,1.8865,1.886,1.8896,1.884,1.8831,1.8823,1.8821,1.8798,1.8801,1.8802,1.8861,1.8778,1.8781,1.8782,1.8783,1.8998,1.9002,0,0,0,0,0,0,1.8924,1.8918,1.8938,1.8936,1.8891,1.8869,1.8863,1.8873,1.8839,1.883,1.8824,1.8815,1.8799,1.8799,1.8801,1.8908,1.8781,1.8783,1.8785,1.8994,1.8999,1.9004,0,0,0,0,0,0,1.8924,1.8927,1.8939,1.8925,1.8924,1.8873,1.8885,1.8874,1.8877,1.8834,1.8824,1.8837,1.8796,1.8797,1.8849,1.8906,1.8784,1.8787,1.8989,1.8995,1.9001,1.9124,0,0,0,0,0,0,1.8924,1.8928,1.896,1.8926,1.8926,1.8987,1.8888,1.8876,1.8882,1.887,1.8844,1.8836,1.8793,1.8846,1.8852,1.8907,1.8789,1.8983,1.8992,1.8999,1.9115,1.9134,1.915,0,0,0,0,0,1.8923,1.8996,1.8962,1.8965,1.8965,1.899,1.899,1.8938,1.8887,1.892,1.8893,1.8837,1.8899,1.8852,1.8858,1.8914,1.898,1.8989,1.8999,1.9107,1.913,1.915,0,0,0,0,0,0,1.9038,1.899,1.8952,1.9017,1.9008,1.8971,1.9011,1.8964,1.8971,1.896,1.8897,1.8892,1.8954,1.894,1.8888,1.9005,1.893,1.8941,1.9011,1.9032,1.905,1.9051,1.8791,0,0,0,0,0,1.9071,1.9094,1.9052,1.9113,1.911,1.9063,1.9071,1.9032,1.9022,1.9018,1.8994,1.8987,1.9005,1.9019,1.9033,1.9114,1.9107,1.9156,1.9173,1.9188,1.9198,1.9242,1.9263,1.9035,1.9035,1.9034,0,0,1.9139,1.9116,1.9134,1.9135,1.9124,1.9151,1.906,1.9091,1.9111,1.9023,1.907,1.9054,1.9042,1.911,1.9138,1.91,1.926,1.92,1.9212,1.9214,1.9254,1.9275,1.9295,1.9041,1.904,1.9039,0,0,1.9277,1.9261,1.9311,1.9302,1.9287,1.9255,1.9268,1.9239,1.9224,1.9271,1.9206,1.923,1.9262,1.9258,1.9259,1.9402,1.935,1.9409,1.95,1.9544,1.9561,1.9577,1.9628,1.9647,1.9419,1.9419,1.9419,0,1.9363,1.9399,1.9343,1.9379,1.9383,1.9305,1.9357,1.9352,1.9343,1.9348,1.9306,1.9347,1.9334,1.94,1.9435,1.9439,1.9453,1.9409,1.9563,1.9578,1.9592,1.964,1.9659,1.9426,1.9425,1.9425,1.9424,0,1.9507,1.9533,1.9576,1.9569,1.9578,1.9622,1.9575,1.9592,1.9554,1.9528,1.9579,1.9561,1.9572,1.9585,1.9548,1.9648,1.9624,1.9574,1.9497,1.9622,1.9666,1.9684,1.9436,1.9434,1.9432,1.943,0,0,1.9711,1.9675,1.9692,1.9689,1.9669,1.9689,1.9732,1.9742,1.9758,1.9756,1.9791,1.9823,1.9777,1.978,1.9743,1.9781,1.9896,1.9726,1.9725,1.9758,2.0006,2.0043,2.0065,1.9864,1.9867,1.987,2.0007,0,1.9841,1.9909,1.9863,1.9939,1.9965,1.9894,1.9932,1.9925,1.9904,1.9924,1.9901,1.9924,1.9861,1.9863,1.9898,1.9875,1.9945,1.9864,1.9897,1.9899,1.9899,2.0088,2.0126,2.0256,2.0024,2.0026,2.0028,0,2.0,2.0006,2.0085,2.0063,2.0072,2.0106,2.0113,2.0133,2.0126,2.0108,2.0113,2.0068,2.0111,2.0038,2.0098,2.0045,2.0056,2.0048,2.0051,2.0051,1.9969,2.0091,2.0296,2.0315,2.0055,2.0053,2.0051,0,2.0142,2.0169,2.022,2.022,2.0195,2.0222,2.0213,2.0202,2.0212,2.022,2.0226,2.0239,2.0246,2.0259,2.022,2.017,2.0286,2.0209,2.0273,2.0274,2.0297,2.0296,2.0506,2.0308,2.0308,2.0308,2.0307,0,2.029,2.0342,2.0283,2.0315,2.0372,2.032,2.0379,2.0363,2.0355,2.0384,2.0325,2.0354,2.0301,2.0326,2.0296,2.0351,2.0355,2.0343,2.0334,2.0347,2.0349,2.0352,2.0341,2.0313,2.0312,2.0311,2.031,0,2.0456,2.0419,2.047,2.0444,2.0439,2.0482,2.046,2.049,2.0466,2.0504,2.0511,2.0474,2.05,2.0463,2.0486,2.0466,2.0542,2.052,2.0543,2.0536,2.0602,2.0596,2.0819,2.0846,2.0633,2.0635,2.0637,0,2.0552,2.059,2.0569,2.0583,2.0578,2.0603,2.0613,2.0567,2.058,2.0578,2.0608,2.063,2.0644,2.0691,2.0667,2.0685,2.0663,2.074,2.0665,2.0678,2.0663,2.0661,2.0665,2.0755,2.0757,2.0759,2.0761,0,2.0727,2.0708,2.0724,2.0736,2.075,2.0757,2.076,2.0776,2.0727,2.0747,2.0772,2.0784,2.0808,2.0831,2.0844,2.0837,2.0792,2.0786,2.0801,2.0814,2.0825,2.082,2.0584,2.078,2.0778,2.0777,2.0776,2.0775,2.086,2.0892,2.0882,2.0904,2.0901,2.0906,2.0933,2.0914,2.0935,2.0949,2.0922,2.0956,2.0952,2.0964,2.0964,2.0991,2.0957,2.098,2.0985,2.0991,2.1001,2.0823,2.0993,2.0993,2.0992,2.0992,2.0991,0,2.1032,2.1023,2.1044,2.105,2.1068,2.1025,2.1027,2.1045,2.1075,2.1075,2.1091,2.1123,2.1146,2.1127,2.1146,2.1172,2.1152,2.1179,2.1175,2.1175,2.103,2.1014,2.1195,2.1195,2.1195,2.1195,2.1195,2.1195,2.1123,2.1174,2.1155,2.1206,2.1198,2.1229,2.1235,2.124,2.124,2.1278,2.1297,2.1284,2.1277,2.1296,2.1316,2.131,2.132,2.1354,2.1341,2.1205,2.1185,2.1166,2.1151,2.1357,2.1357,2.1483,2.1484,2.1485]},{"header":{"parameterUnit":"m.s-1","parameterCategory":1,"la1":30.2991,"la2":30.254,"lo1":-89.0895,"lo2":-89.0444,"dy":0.0017,"dx":0.0017,"nx":28,"ny":28,"refTime":"2024-06-29T21:00:00:Z","depth":0,"parameterNumber":3,"parameterNumberName":"V-component_of_WINDS"},"data":[0,0,0,0,0,0,0,0,0,0,0,0,0,0,0,0,0,0,0,0,0,0,0,0,0,0,0,0,0,0,0,0,0,0,0,0,0,0,0,0,0,0,0,0,0,0,0,0,0,0,0,0,0,0,0,0,0,0,1.9456,1.9458,0,1.9599,1.9601,1.9603,1.9603,1.9601,1.9599,1.9597,1.9739,1.9744,1.9749,0,0,0,0,0,0,0,0,0,0,0,0,0,1.9175,1.918,1.9456,1.9458,1.946,1.9599,1.9601,1.9603,1.9603,1.9601,1.9598,1.9596,1.9737,1.9743,1.975,0,0,0,0,0,0,0,0,0,0,0,0,0,1.9305,1.9181,1.9456,1.9477,1.948,1.9599,1.9601,1.9604,1.9603,1.9601,1.9598,1.9595,1.9735,1.9743,1.9751,1.9857,0,0,1.9776,1.978,0,0,0,0,0,0,0,0,1.9298,1.9315,1.9472,1.9475,1.9479,1.958,1.9554,1.9688,1.9604,1.9556,1.9597,1.9594,1.9688,1.97,1.9733,1.9864,1.987,1.9777,1.9782,1.9785,1.9788,0,0,0,0,0,0,0,1.9289,1.9309,1.9513,1.9474,1.9479,1.9476,1.9492,1.9579,1.9636,1.956,1.9561,1.9578,1.9689,1.9725,1.9736,1.9872,1.9776,1.9784,1.9789,1.9792,2.0091,2.0094,0,0,0,0,0,0,1.9276,1.9302,1.9508,1.9517,1.938,1.9483,1.9501,1.9551,1.9635,1.9645,1.958,1.9577,1.9712,1.9726,1.9741,1.9868,1.9785,1.9793,1.9798,2.0088,2.0092,2.0095,0,0,0,0,0,0,1.927,1.9295,1.9502,1.941,1.9436,1.9491,1.9547,1.9555,1.959,1.965,1.9659,1.9606,1.971,1.9729,1.9827,1.9873,1.9797,1.9804,2.0085,2.0089,2.0094,2.0124,0,0,0,0,0,0,1.9262,1.9293,1.9336,1.9411,1.9441,1.9589,1.955,1.956,1.9605,1.9603,1.9677,1.9686,1.971,1.9815,1.9835,1.9883,1.9811,2.0081,2.0087,2.0092,2.0119,2.0129,2.0137,0,0,0,0,0,1.9252,1.9339,1.9338,1.9363,1.9496,1.9592,1.9609,1.9635,1.9609,1.9651,1.9688,1.9684,1.9864,1.9825,1.9848,1.9898,2.0078,2.0085,2.0092,2.0115,2.0127,2.0137,0,0,0,0,0,0,1.9268,1.9349,1.9349,1.9463,1.9521,1.9592,1.9646,1.9648,1.9713,1.9708,1.9736,1.9753,1.9849,1.9884,1.9839,2.0003,1.9968,1.9979,1.9977,1.9989,1.9998,1.9987,1.9817,0,0,0,0,0,1.9284,1.9357,1.9424,1.9517,1.9546,1.9591,1.9634,1.9649,1.9709,1.9733,1.9778,1.9834,1.9903,1.9948,2.0015,2.0123,2.0137,2.0169,2.0178,2.0185,2.0195,2.025,2.0264,2.0117,2.0117,2.0117,0,0,1.932,1.9373,1.9417,1.9522,1.9568,1.964,1.9612,1.969,1.9743,1.9744,1.9839,1.9873,1.9938,2.0041,2.0088,2.0072,2.0238,2.0194,2.0199,2.0205,2.0258,2.0272,2.0284,2.0122,2.0121,2.0121,0,0,1.942,1.9469,1.9551,1.9597,1.9668,1.9696,1.9715,1.9786,1.9809,1.9905,1.9906,1.9967,2.0087,2.0131,2.017,2.0282,2.0279,2.0302,2.035,2.0404,2.0415,2.0425,2.0462,2.0476,2.0312,2.0312,2.0312,0,1.9455,1.9566,1.9593,1.9671,1.9714,1.9719,1.9799,1.9843,1.9931,1.9959,1.994,2.0087,2.0131,2.0242,2.0269,2.0301,2.0321,2.0295,2.0412,2.0422,2.0432,2.0468,2.0482,2.0314,2.0314,2.0314,2.0314,0,1.9603,1.9679,1.9736,1.9821,1.9871,1.995,1.9986,2.0033,2.0042,2.0071,2.0166,2.0218,2.0294,2.0321,2.0332,2.0433,2.042,2.0406,2.0371,2.0448,2.0482,2.0496,2.0318,2.0317,2.0316,2.0315,0,0,1.972,1.9816,1.9837,1.9873,1.9949,2.0007,2.0083,2.0158,2.0197,2.0256,2.0318,2.0417,2.0403,2.0446,2.0461,2.0508,2.0589,2.0488,2.0489,2.0503,2.0699,2.0708,2.0724,2.0587,2.059,2.0592,2.0693,0,1.9827,1.9967,1.999,2.0111,2.0179,2.0182,2.0248,2.0299,2.0327,2.0387,2.0417,2.0485,2.0464,2.0489,2.0536,2.0569,2.0629,2.0563,2.0643,2.0645,2.0626,2.0742,2.0754,2.0846,2.0707,2.0709,2.0711,0,1.9972,2.0035,2.0162,2.0224,2.0254,2.0313,2.0381,2.0439,2.0496,2.0512,2.0558,2.0566,2.0642,2.0603,2.0705,2.066,2.0693,2.0714,2.0718,2.0726,2.0682,2.0751,2.0877,2.089,2.0732,2.073,2.0729,0,2.0042,2.0158,2.0248,2.0279,2.0355,2.0396,2.0429,2.0483,2.0525,2.0583,2.0609,2.0675,2.0711,2.076,2.0784,2.0754,2.0883,2.0848,2.0896,2.0896,2.0924,2.0922,2.1055,2.0948,2.0947,2.0947,2.0947,0,2.0159,2.0236,2.0279,2.0335,2.0419,2.0444,2.0526,2.0558,2.0605,2.0663,2.0669,2.0723,2.0752,2.0809,2.0828,2.0907,2.0924,2.0937,2.0941,2.0936,2.0934,2.0958,2.0952,2.0951,2.095,2.0949,2.0949,0,2.0251,2.0284,2.0382,2.0445,2.0462,2.0521,2.0573,2.0625,2.0651,2.0725,2.0743,2.0784,2.0852,2.088,2.0963,2.0975,2.1065,2.1065,2.1047,2.1048,2.1094,2.1089,2.1247,2.1267,2.1148,2.1149,2.115,0,2.0323,2.0382,2.0451,2.0491,2.0525,2.059,2.0632,2.0657,2.07,2.0766,2.0809,2.0876,2.0932,2.1039,2.1074,2.1136,2.1136,2.1187,2.1145,2.1137,2.1134,2.1129,2.1134,2.1194,2.1195,2.1196,2.1197,0,2.0447,2.0459,2.0521,2.0587,2.0637,2.069,2.0742,2.0774,2.0806,2.0853,2.0922,2.0965,2.1049,2.1114,2.1178,2.1208,2.1207,2.121,2.1224,2.1219,2.1205,2.1211,2.1066,2.1206,2.1205,2.1205,2.1204,2.1204,2.053,2.0581,2.0636,2.0703,2.0744,2.0791,2.0842,2.0873,2.0932,2.1003,2.1013,2.1086,2.1136,2.1221,2.1253,2.1308,2.1295,2.1317,2.1322,2.1326,2.1328,2.1197,2.132,2.132,2.132,2.132,2.1319,0,2.0651,2.0686,2.0748,2.0819,2.087,2.0866,2.0921,2.0964,2.1029,2.1076,2.113,2.1207,2.1269,2.1308,2.137,2.1406,2.1407,2.1421,2.1418,2.1424,2.1338,2.1318,2.1419,2.1419,2.1419,2.1419,2.1419,2.1419,2.0721,2.0806,2.0824,2.0927,2.096,2.1033,2.1064,2.1106,2.1144,2.123,2.1282,2.1307,2.135,2.1414,2.1469,2.1479,2.15,2.1515,2.1523,2.1442,2.1431,2.1421,2.1403,2.152,2.1521,2.1606,2.1606,2.1607]}]]